Location: Bastelaar
(51.0950°N, 3.8602°E)
Time: 01:39:34
(UTC+00:00)

ARIANE 6 FM1 Upper Stage - Pass Details

Date: 28 January 2026
Orbit: 522 x 609 km, 62.0° (Epoch: 13 February)

Event Time Altitude Azimuth Distance (km) Brightness Sun altitude
Rises 19:12:18 0° 266° (W) 2,688 7.5 -25.6°
Reaches altitude 10° 19:14:48 10° 280° (W) 1,787 6.2 -26.0°
Enters shadow 19:18:05 25° 335° (NNW) 1,088 4.3 -26.5°
